Regional Weather Roundup
Issued by NWS

Home | Current Version | Previous Version | Graphics & Text | Print | Product List | Glossary On
Versions: 1 2 3 4 5 6 7 8 9 10 11 12 13 14 15 16 17 18 19 20 21 22 23 24 25 26 27
000
ASUS45 KCYS 280510
RWRWY

WYOMING REGIONAL WEATHER ROUNDUP
NATIONAL WEATHER SERVICE CHEYENNE WY
1100 PM MDT TUE SEP 27 2016

NOTE:  "FAIR" INDICATES FEW OR NO CLOUDS BELOW 12,000 FEET
WITH NO SIGNIFICANT WEATHER AND/OR OBSTRUCTIONS TO VISIBILITY.

WYZ001-280600-
YELLOWSTONE NATIONAL PARK

CITY           SKY/WX    TMP DP  RH WIND       PRES   REMARKS
LK YELLOWSTONE   N/A     37  34  89 NW3       30.40R
W YELLOWSTONE  NOT AVBL

$$
WYZ002>013-054>058-071-098>099-280600-
NORTHERN WYOMING

CITY           SKY/WX    TMP DP  RH WIND       PRES   REMARKS
JACKSON        FAIR      46  39  76 NE7       30.29R
CODY           FAIR      54  43  66 S7        30.23R
GREYBULL       FAIR      57  48  72 SE5       30.14R
WORLAND        FAIR      55  46  71 S7        30.16R
SHERIDAN       FAIR      50  43  77 SW5       30.15R
BUFFALO        FAIR      59  39  47 W7        30.22R
GILLETTE       FAIR      47  44  90 SW3       30.17R
HULETT         FAIR      54  41  62 S7        30.16S
NEWCASTLE      FAIR      55  39  54 NW3       30.15S

$$
WYZ014>020-022>026-101>103-280600-
CENTRAL WYOMING

CITY           SKY/WX    TMP DP  RH WIND       PRES   REMARKS
BIG PINEY      FAIR      46  36  68 E5        30.32R
PINEDALE       FAIR      45  32  61 N5        30.34R
DUBOIS         FAIR      46  32  57 NW7       30.35S
LANDER         FAIR      59  37  44 SW6       30.24R
RIVERTON       FAIR      54  46  74 W10       30.24R
CASPER         FAIR      51  40  65 NE3       30.23R
DOUGLAS        FAIR      51  37  58 N5        30.22R

$$
WYZ021-027>030-104>119-280600-
SOUTHERN WYOMING

CITY           SKY/WX    TMP DP  RH WIND       PRES   REMARKS
EVANSTON       FAIR      59  37  44 S3        30.32R
FORT BRIDGER   FAIR      56  34  42 W6        30.34R
ROCK SPRINGS   FAIR      57  36  45 S7        30.30R
DIXON          FAIR      49  36  59 E10       30.33R
RAWLINS        FAIR      45  30  55 N6        30.31R
SARATOGA       FAIR      43  32  65 S7        30.33R
LARAMIE        FAIR      45  32  60 W3        30.34R
CHEYENNE       FAIR      52  29  41 W9        30.26R
TORRINGTON     FAIR      53  42  66 W5        30.14R
PINE BLUFFS    FAIR      48  34  57 W9G17     30.21R

$$




USA.gov is the U.S. government's official web portal to all federal, state and local government web resources and services.